Probability
7 7 7 6 6 6 6 6 4 3 3 3 1 0 0 0 0 0 0 0 0 0 0 0 0 0 0 0 0 0 0 0 0 0 0 0 0 0 0 0 0 0 0
7 7 7 6 6 6 6 6 5 4 3 3 2 1 0 0 0 0 0 0 0 0 0 0 0 0 0 0 0 0 0 0 0 0 0 0 0 0 0 0 0 0 0
6 7 6 6 6 6 6 6 6 4 3 3 2 1 0 0 0 0 0 0 0 0 0 0 0 0 0 0 0 0 0 0 0 0 0 0 0 0 0 0 0 0 0
5 6 6 4 3 3 4 4 4 2 2 2 2 1 0 0 0 0 0 0 0 0 0 0 0 0 0 0 0 0 0 0 0 0 0 0 0 0 0 0 0 0 0
4 5 5 2 1 1 1 1 1 1 1 1 1 0 0 0 0 0 0 0 0 0 0 0 0 0 0 0 0 1 0 0 0 0 0 0 0 0 0 0 0 0 0
4 4 4 2 0 0 0 0 0 0 0 0 0 0 0 0 0 0 0 0 0 0 0 0 0 0 0 0 0 0 0 0 0 0 0 0 0 0 0 0 1 1 0
3 4 4 3 1 0 0 0 0 0 0 0 0 0 0 0 0 0 0 0 0 0 0 0 0 0 0 0 0 0 0 0 0 0 0 0 0 0 0 0 1 1 1
3 3 4 3 1 0 0 0 0 0 0 0 0 0 0 0 0 0 0 0 0 0 0 0 0 0 0 0 0 0 0 0 0 0 0 0 0 0 0 0 1 1 0
3 3 4 3 1 0 0 0 0 0 0 0 0 0 0 0 0 0 0 0 0 0 0 0 0 0 0 0 0 0 0 0 0 0 0 0 0 0 0 0 0 0 0
4 4 5 3 1 0 0 0 0 0 0 0 0 0 0 0 0 0 0 0 0 0 0 0 0 0 0 0 0 0 0 0 0 0 0 0 0 0 0 0 0 0 0
4 5 6 4 1 0 0 0 0 0 0 0 0 0 0 0 0 0 0 0 0 0 0 0 0 0 0 0 0 0 0 0 0 0 0 0 0 0 0 0 0 0 0
3 4 5 3 1 0 0 0 0 0 0 0 0 0 0 0 0 0 0 0 0 0 0 0 0 0 0 0 0 0 0 0 0 0 0 0 0 0 0 0 0 0 0
1 2 3 2 0 0 0 0 0 0 0 0 0 0 0 0 0 0 0 0 0 0 0 0 0 0 0 0 0 0 0 0 0 0 0 0 0 0 0 0 0 0 0
0 1 2 2 1 0 0 0 0 0 0 0 0 0 0 0 0 0 0 0 0 0 0 0 0 0 0 0 0 0 0 0 0 0 0 0 0 0 0 0 0 0 0
0 0 1 1 1 1 1 1 0 0 0 0 0 0 0 0 0 0 0 0 0 0 0 0 0 0 0 0 0 0 0 0 0 0 0 0 0 0 0 0 0 0 0
0 0 0 0 1 2 2 2 1 0 0 0 0 0 0 0 0 0 0 0 0 0 0 0 0 0 0 0 0 0 0 0 0 0 0 0 0 0 0 0 0 0 0
0 0 0 0 1 2 2 2 1 0 0 0 0 0 0 0 0 0 0 0 0 0 0 0 0 0 0 0 0 0 0 0 0 0 0 0 0 0 0 0 0 0 0
0 0 0 0 0 1 1 1 0 0 0 0 0 0 0 0 0 0 0 0 0 0 0 0 0 0 0 0 0 0 0 0 0 0 0 0 0 0 0 0 0 0 0
0 0 0 0 0 0 0 0 0 0 0 0 0 0 0 0 0 0 0 0 0 0 0 0 0 0 0 0 0 0 0 0 0 0 0 0 0 0 0 0 0 0 0
0 0 0 0 0 0 0 0 0 0 0 0 0 0 0 0 0 0 0 0 0 0 0 0 0 0 0 0 0 0 0 0 0 0 0 0 0 0 0 0 0 0 0
0 0 0 0 0 0 0 0 0 0 0 0 0 0 0 0 0 0 0 0 0 0 0 0 0 0 0 0 0 0 0 0 0 0 0 0 0 0 0 0 0 0 0
0 0 0 0 0 0 0 0 0 0 0 0 0 0 0 0 0 0 0 0 0 0 0 0 0 0 0 0 0 0 0 0 0 0 0 0 0 0 0 0 0 0 0
0 0 0 0 0 0 0 0 0 0 0 0 0 0 0 0 0 0 0 0 0 0 0 0 0 0 0 0 0 0 0 0 0 0 0 0 0 0 0 0 0 0 0
0 0 0 0 0 0 0 0 0 0 0 0 0 0 0 0 0 0 0 0 0 0 0 0 0 0 0 0 0 0 0 0 0 0 0 0 0 0 0 0 0 0 0
0 0 0 0 0 0 0 0 0 0 0 0 0 0 0 0 0 0 0 0 0 0 0 0 0 0 0 0 0 0 0 0 0 0 0 0 0 0 0 0 0 0 0
0 0 0 0 0 0 0 0 0 0 0 0 0 0 0 0 0 0 0 0 0 0 0 0 0 0 0 0 0 0 0 0 0 0 0 0 0 0 0 0 0 0 0
Wind_Speed
3 3 2 2 3 3 3 3 4 5 5 5 4 5 5 5 4 4 4 8 8 8 9 9 9 9 9 9 9 9 9 10 10 10 9 9 9 9 8 9 8 8 7
3 3 3 3 3 3 3 3 4 4 4 4 4 4 5 5 4 5 4 6 9 9 9 9 9 9 9 8 8 8 8 8 8 8 8 8 8 8 7 7 7 7 6
4 3 3 3 3 3 3 4 5 4 4 4 4 4 4 4 4 5 4 4 5 7 9 8 8 8 8 8 7 7 7 7 7 7 7 7 7 7 6 6 6 6 5
4 4 3 3 3 3 3 3 4 4 4 3 3 3 3 4 4 4 4 4 4 4 6 8 7 7 7 8 8 8 7 6 6 6 6 6 6 6 6 6 5 5 5
4 4 3 3 3 3 3 3 4 4 4 4 4 3 3 4 3 4 5 5 5 4 4 6 8 8 7 7 7 7 7 7 6 5 5 5 5 5 5 5 5 5 5
4 4 3 4 3 3 3 3 4 4 4 4 4 4 3 4 3 4 4 4 4 5 4 4 4 5 8 7 7 7 6 6 6 5 4 4 4 4 4 4 4 5 4
3 3 3 4 3 3 4 4 4 5 4 3 3 3 3 3 3 3 3 3 4 4 4 4 3 3 3 7 8 8 8 6 6 6 4 4 4 4 5 5 4 4 5
3 3 4 3 3 3 4 4 4 3 2 1 1 2 2 2 2 2 2 2 3 3 3 4 3 3 3 2 6 9 8 8 7 6 5 5 5 5 5 5 5 5 5
4 3 4 4 3 3 3 4 4 4 3 2 0 1 2 2 2 2 2 2 2 2 2 2 3 3 3 3 3 6 8 8 8 7 6 5 6 6 6 6 6 6 6
4 3 3 4 4 3 3 4 3 3 4 3 1 1 1 1 2 2 2 1 1 1 1 2 2 2 3 3 4 7 8 8 8 8 7 6 7 7 7 7 7 6 7
4 4 4 3 3 3 3 4 3 3 3 3 2 1 1 0 1 2 2 2 1 0 1 1 1 1 2 3 3 6 9 9 8 8 8 8 8 7 8 8 8 8 7
3 4 4 4 4 3 3 3 3 4 3 3 2 1 1 1 1 1 1 2 2 1 1 1 1 1 1 2 3 7 8 8 9 9 9 9 9 8 8 9 9 8 8
3 4 4 4 4 3 3 3 3 3 3 3 2 1 1 1 0 1 1 1 2 1 2 2 1 1 1 2 2 6 6 8 9 9 9 9 9 9 8 9 10 9 9
4 4 4 4 4 4 4 3 3 3 3 3 3 2 1 1 1 1 1 1 1 2 3 2 1 1 1 2 3 5 5 7 8 8 9 9 9 9 9 8 9 9 9
3 4 4 4 4 4 4 4 3 3 3 3 3 3 2 1 1 1 1 2 2 2 3 2 1 1 2 3 4 4 5 6 8 8 9 9 10 10 9 8 9 9 9
4 4 4 4 5 5 5 4 4 4 3 3 3 3 2 2 2 1 2 2 2 3 3 2 2 3 4 3 5 5 5 7 7 8 9 9 10 10 10 9 9 8 9
4 5 5 5 5 5 5 5 4 4 5 4 3 4 3 3 2 2 2 2 2 3 4 3 3 3 5 5 4 5 5 5 5 7 9 9 9 10 10 10 9 8 9
4 4 5 5 5 5 5 6 6 5 5 5 5 4 4 3 3 3 3 3 3 3 4 4 3 3 5 5 5 5 5 5 5 7 9 10 10 10 10 10 10 9 9
4 4 4 5 5 6 6 6 6 6 6 6 5 6 5 5 5 3 4 3 3 2 3 4 4 3 4 4 5 5 5 5 5 6 8 9 9 10 10 10 10 10 10
4 4 5 5 5 5 6 6 6 6 6 6 6 6 6 6 6 5 4 4 3 3 3 4 4 4 4 4 4 4 4 4 5 5 6 7 8 9 10 10 10 10 10
4 4 4 4 4 5 5 5 5 5 5 5 5 5 5 6 6 5 4 4 4 3 3 4 4 4 4 4 4 4 5 5 6 4 5 5 6 5 6 8 9 10 10
4 4 5 5 5 4 5 6 5 5 5 5 5 5 4 5 6 7 8 7 7 6 5 5 5 5 6 5 4 4 5 6 5 3 6 6 6 6 6 6 8 10 11
4 4 5 5 5 5 6 7 6 5 5 5 5 5 4 4 5 5 6 6 7 8 9 7 7 7 7 5 5 6 6 7 7 6 6 7 6 7 6 7 11 12 12
4 4 4 5 5 5 6 7 7 6 5 6 6 6 6 5 5 5 5 5 6 6 6 6 7 7 7 6 6 7 7 8 8 6 6 8 7 7 7 7 10 12 13
3 4 4 4 5 5 7 8 7 5 5 5 5 6 6 6 7 7 6 6 5 5 5 7 8 8 9 10 8 6 6 6 7 6 5 6 6 7 7 7 7 10 12
3 3 3 4 4 5 7 8 7 4 4 4 4 5 7 7 8 8 6 6 6 5 4 4 5 7 7 7 9 8 6 6 6 6 4 5 5 6 6 5 5 6 7
Wind_Direction
125 120 112 106 107 115 124 121 115 111 106 100 94 94 91 85 84 85 83 65 63 70 76 76 75 75 74 74 76 73 71 68 64 59 59 58 54 52 52 52 49 47 48
121 123 115 111 112 117 123 125 119 113 104 98 93 92 92 92 88 86 85 80 66 64 69 73 74 73 72 73 75 74 72 67 63 59 56 55 52 48 47 44 42 40 40
122 121 119 117 110 116 123 124 118 113 105 101 95 85 84 86 89 86 82 78 80 68 64 66 67 68 69 68 69 71 72 66 61 57 52 50 48 43 40 37 33 30 30
125 124 121 115 115 121 123 126 127 124 117 108 96 84 79 82 82 82 81 76 68 67 69 59 60 61 64 63 61 60 62 60 60 56 49 44 38 33 30 31 28 25 23
129 126 121 117 129 125 120 117 119 122 118 104 91 81 74 74 73 76 75 70 62 57 63 63 57 53 53 56 56 54 51 50 50 48 41 37 30 24 20 18 17 14 11
136 128 123 124 132 127 121 120 116 110 111 107 100 81 69 69 64 63 67 69 62 55 57 60 63 59 50 46 44 44 42 40 35 30 28 23 12 5 1 355 358 2 354
134 131 127 130 132 131 129 129 124 115 105 113 116 106 90 81 73 62 58 62 63 55 52 54 51 53 55 46 41 39 34 29 22 14 9 357 345 341 340 338 337 336 334
135 135 134 133 136 133 131 131 128 128 113 117 142 152 152 152 101 60 55 55 54 54 51 49 49 49 45 43 38 32 27 23 17 9 5 0 348 334 326 328 327 325 321
138 137 143 140 141 141 140 143 146 143 147 133 62 218 185 174 145 140 85 63 50 47 50 43 41 37 36 34 30 27 19 11 5 360 354 347 341 339 331 319 314 316 319
143 138 141 145 145 144 148 153 152 151 155 151 133 19 348 99 172 160 164 123 62 37 35 32 31 29 29 27 23 16 11 2 354 349 341 338 336 335 328 324 321 316 315
153 147 144 148 149 148 155 154 152 150 159 160 155 145 108 82 205 188 185 189 202 210 18 6 12 15 19 17 10 11 6 356 343 337 337 332 329 327 326 323 323 320 322
159 157 157 156 155 151 158 163 162 159 156 155 154 153 151 166 190 197 190 205 234 232 256 256 283 342 347 352 3 2 355 352 345 338 332 333 331 325 321 318 318 320 320
167 176 171 170 166 162 163 162 163 168 165 161 167 174 179 183 186 205 180 217 251 256 228 221 229 284 316 327 346 348 338 340 336 334 332 329 330 326 319 314 314 317 319
179 177 178 175 173 166 166 166 164 170 173 175 180 184 192 185 204 201 196 201 249 248 236 235 231 255 311 315 338 325 317 329 328 330 331 330 327 325 321 316 312 315 317
178 174 176 179 179 177 175 174 177 179 180 181 186 191 198 203 214 223 211 217 223 243 251 244 240 258 307 309 326 310 309 321 320 320 321 322 322 318 315 308 306 309 311
177 173 178 183 182 182 182 183 185 185 186 187 190 191 197 207 205 218 220 234 241 243 250 261 274 294 296 297 306 301 306 314 306 309 311 312 310 311 308 303 303 304 305
186 182 185 186 189 189 190 192 198 190 194 195 196 199 208 208 203 209 215 221 232 242 247 269 278 282 280 286 293 296 299 299 298 301 304 306 306 305 304 302 296 299 301
190 189 190 192 195 195 196 199 202 202 204 204 203 205 211 209 212 211 214 225 233 245 252 263 274 279 281 284 288 291 294 296 295 302 301 300 297 297 297 298 294 294 296
193 190 194 199 201 202 203 205 208 210 211 211 209 212 213 213 216 218 223 227 233 244 252 258 272 276 279 282 285 283 285 289 293 296 298 294 292 295 295 295 294 291 289
202 199 199 203 205 207 209 208 209 211 212 214 214 218 218 218 221 220 225 227 231 238 248 254 265 274 277 280 278 285 290 290 293 291 291 294 295 292 291 292 290 291 289
209 204 201 203 206 208 207 207 209 210 213 216 219 221 222 224 232 231 229 228 230 235 244 253 260 269 270 274 278 291 291 299 295 291 295 293 293 289 288 286 281 283 287
207 206 208 207 210 212 203 210 215 214 214 218 222 224 224 221 224 231 237 237 236 236 241 250 257 257 265 274 282 283 288 294 293 305 306 298 294 288 288 285 288 287 286
206 211 215 214 217 214 204 210 216 220 220 221 223 224 226 225 225 230 233 234 240 245 246 250 255 257 265 268 276 278 278 284 286 298 298 289 288 285 287 282 287 285 284
214 218 219 219 223 218 208 212 214 224 225 226 226 224 225 226 226 231 236 241 247 247 249 251 254 262 267 267 266 272 277 282 283 278 277 280 286 287 289 282 282 283 282
221 224 223 222 224 221 212 213 214 221 222 226 229 229 227 228 223 228 236 242 250 258 258 255 262 266 269 268 266 267 268 273 282 282 274 274 286 293 286 280 280 281 281
224 224 226 227 228 228 217 213 213 216 218 222 227 229 227 226 225 229 235 236 243 250 256 260 261 262 261 258 257 255 258 264 277 281 273 280 290 300 291 280 288 292 288